This demonstration page uses our WeatherBlox Daily Observations layout. Learn more.

Left ArrowRight Arrow

39.08367, -84.50855

Hourly Observations for December 16, 2020

Temp ( °F °C ) Dew Point ( °F °C ) Humidity (%) Winds ( mph kmh ) Pressure ( in mb ) Visibility ( mi km ) Precip ( " mm )
12:53 am 00:53 Cloudy 32 0 21 -6.1 64 64 NE 5 7 30.09 1019 10 16.0934 0 0
1:53 am 01:53 Cloudy 32 0 21 -6.1 64 64 NE 5 7 30.09 1019 10 16.0934 0 0
2:53 am 02:53 Cloudy 33 0.6 21 -6.1 61 61 NE 6 9 30.07 1018 10 16.0934 0 0
3:53 am 03:53 Cloudy 32 0 22 -5.6 66 66 NE 3 6 30.06 1018 10 16.0934 0 0
4:53 am 04:53 Cloudy 32 0 23 -5 69 69 NE 5 7 30.04 1017 10 16.0934 0 0
5:53 am 05:53 Cloudy with Light Snow 31 -0.6 25 -3.9 79 79 ENE 6 9 30 1016 7 11.26538 0.001 0.001
6:49 am 06:49 Cloudy with Light Wintry Mix 32 0 27 -3 80 80 Calm 30.02 1017 7 11.26538 0.01 0.254
6:53 am 06:53 Cloudy with Light Wintry Mix 32 0 26 -3.3 79 79 Calm 30 1016 7 11.26538 0.01 0.254
7:04 am 07:04 Cloudy with Freezing Drizzle 31 -0.6 27 -2.8 85 85 Calm 30.02 1017 7 11.26538 0.001 0.001
7:48 am 07:48 Cloudy with Freezing Drizzle 30 -1 28 -2 93 93 NNE 3 6 30.01 1016 6 9.65604 0.01 0.254
7:53 am 07:53 Cloudy with Freezing Drizzle 31 -0.6 28 -2.2 89 89 NNE 3 6 29.98 1015 6 9.65604 0.01 0.254
8:53 am 08:53 Cloudy with Freezing Drizzle 32 0 29 -1.7 88 88 N 3 6 29.98 1015 5 8.0467 0.02 0.508
9:00 am 09:00 Cloudy with Freezing Drizzle 32 0 29 -1.7 88 88 N 3 6 30 1016 5 8.0467 0.01 0.254
9:07 am 09:07 Cloudy with Freezing Drizzle 32 0 29 -1.7 88 88 N 3 6 30 1016 5 8.0467 0.01 0.254
9:53 am 09:53 Cloudy with Freezing Drizzle 32 0 29 -1.7 88 88 Calm 29.98 1015 5 8.0467 0.04 1.016
10:00 am 10:00 Cloudy with Freezing Drizzle 32 0 29 -1.7 88 88 Calm 30 1016 5 8.0467 0.001 0.001
10:53 am 10:53 Cloudy with Mist and Fog 33 0.6 31 -0.6 92 92 Calm 29.97 1015 6 9.65604 0.01 0.254
11:14 am 11:14 Cloudy with Light Rain 33 0.6 31 -0.6 92 92 Calm 29.98 1015 5 8.0467 0.001 0.001
11:20 am 11:20 Cloudy with Light Rain 34 1.1 31 -0.6 89 89 Calm 29.98 1015 4 6.43736 0.01 0.254
11:53 am 11:53 Cloudy with Light Rain 34 1.1 32 0 92 92 Calm 29.94 1014 4 6.43736 0.03 0.762
12:53 pm 12:53 Cloudy with Light Rain 35 1.7 33 0.6 93 93 Calm 29.9 1012 6 9.65604 0.01 0.254
1:53 pm 13:53 Cloudy with Light Rain 35 1.7 33 0.6 93 93 Calm 29.88 1012 4 6.43736 0.01 0.254
2:53 pm 14:53 Cloudy with Mist and Fog 37 2.8 34 1.1 89 89 Calm 29.88 1012 6 9.65604 0.01 0.254
3:53 pm 15:53 Cloudy with Mist and Fog 37 2.8 35 1.7 93 93 Calm 29.88 1012 6 9.65604 0 0
4:53 pm 16:53 Cloudy with Mist and Fog 37 2.8 34 1.1 89 89 NNW 6 9 29.9 1013 4 6.43736 0 0
5:53 pm 17:53 Cloudy with Mist and Fog 36 2.2 33 0.6 89 89 N 8 13 29.91 1013 4 6.43736 0 0
6:53 pm 18:53 Cloudy with Mist and Fog 35 1.7 33 0.6 93 93 WNW 5 7 29.94 1014 4 6.43736 0 0
7:53 pm 19:53 Cloudy with Light Snow 34 1.1 32 0 92 92 NW 5 7 29.94 1014 2.5 4.02335 0.001 0.001
7:59 pm 19:59 Cloudy with Light Snow 34 1.1 31 -0.6 89 89 NW 6 9 29.96 1014 3 4.82802 0.001 0.001
8:51 pm 20:51 Cloudy with Light Snow 34 1 30 -1 87 87 NW 5 7 29.97 1015 4 6.43736 0.01 0.254
8:53 pm 20:53 Cloudy with Light Snow 34 1.1 31 -0.6 89 89 WNW 3 6 29.95 1014 4 6.43736 0.01 0.254
9:53 pm 21:53 Cloudy 34 1.1 30 -1.1 85 85 WNW 12 19 29.97 1015 7 11.26538 0.001 0.001
10:53 pm 22:53 Cloudy 33 0.6 29 -1.7 85 85 VRB 5 7 29.98 1015 7 11.26538 0 0
11:00 pm 23:00 Cloudy with Mist and Fog 33 0.6 30 -1.1 89 89 WNW 5 7 30.01 1016 6 9.65604 0 0
11:53 pm 23:53 Cloudy with Haze 33 0.6 28 -2.2 82 82 NNW 5 7 29.99 1016 6 9.65604 0 0

Powered by AerisWeather